REH520 KMFR-KSTS

Flight info

Callsign REH520
Flight time 1h 3m
Altitude 23000
Route LOZWU
Aircraft BE20/L-SBGRY/S

Departure

Time 2026-04-21 16:41
Airport Rogue Valley International-Medford Airport (KMFR)

Arrival

Time 2026-04-21 17:44
Airport Charles M. Schulz Sonoma County Airport (KSTS)
Time Latitude Longitude Altitude Speed Heading
2026-04-21 16:33 42.36873 -122.87265 1339 ft 0 kts 248°
2026-04-21 16:36 42.36876 -122.87257 1339 ft 2 kts 238°
2026-04-21 16:36 42.36889 -122.87243 1339 ft 3 kts 201°
2026-04-21 16:36 42.36900 -122.87240 1339 ft 0 kts 182°
2026-04-21 16:37 42.36897 -122.87240 1339 ft 1 kts 170°
2026-04-21 16:37 42.36887 -122.87233 1339 ft 2 kts 151°
2026-04-21 16:37 42.36878 -122.87210 1339 ft 4 kts 107°
2026-04-21 16:38 42.36870 -122.87172 1339 ft 5 kts 105°
2026-04-21 16:38 42.36842 -122.87093 1339 ft 15 kts 146°
2026-04-21 16:38 42.36722 -122.87026 1339 ft 22 kts 159°
2026-04-21 16:38 42.36570 -122.86950 1339 ft 24 kts 158°
2026-04-21 16:39 42.36413 -122.86870 1339 ft 22 kts 160°
2026-04-21 16:39 42.36381 -122.86813 1339 ft 0 kts 75°
2026-04-21 16:39 42.36382 -122.86812 1339 ft 1 kts 73°
2026-04-21 16:39 42.36387 -122.86790 1339 ft 2 kts 70°
2026-04-21 16:40 42.36393 -122.86777 1339 ft 2 kts 45°
2026-04-21 16:40 42.36474 -122.86790 1339 ft 23 kts 337°
2026-04-21 16:40 42.36694 -122.86906 1339 ft 49 kts 338°
2026-04-21 16:40 42.37159 -122.87151 1339 ft 95 kts 338°
2026-04-21 16:41 42.37886 -122.87519 1394 ft 124 kts 339°
2026-04-21 16:41 42.38731 -122.87877 1731 ft 122 kts 341°
2026-04-21 16:41 42.39488 -122.88425 2073 ft 125 kts 319°
2026-04-21 16:41 42.40010 -122.89402 2350 ft 141 kts 292°
2026-04-21 16:42 42.40227 -122.90776 2651 ft 156 kts 272°
2026-04-21 16:42 42.40030 -122.92239 3001 ft 166 kts 248°
2026-04-21 16:42 42.39383 -122.93537 3423 ft 171 kts 224°
2026-04-21 16:42 42.38391 -122.94454 3804 ft 177 kts 205°
2026-04-21 16:43 42.37183 -122.94856 4106 ft 182 kts 181°
2026-04-21 16:43 42.35957 -122.94502 4582 ft 182 kts 156°
2026-04-21 16:43 42.34903 -122.93490 4884 ft 193 kts 135°
2026-04-21 16:43 42.34084 -122.91985 5113 ft 204 kts 120°
2026-04-21 16:44 42.33511 -122.90220 5333 ft 207 kts 110°
2026-04-21 16:44 42.33013 -122.88382 5495 ft 213 kts 111°
2026-04-21 16:44 42.32472 -122.86533 5756 ft 215 kts 113°
2026-04-21 16:44 42.31616 -122.84835 5697 ft 226 kts 139°
2026-04-21 16:45 42.30206 -122.83857 5661 ft 231 kts 168°
2026-04-21 16:45 42.28660 -122.83972 6018 ft 220 kts 198°
2026-04-21 16:45 42.27357 -122.84976 6401 ft 215 kts 216°
2026-04-21 16:45 42.26125 -122.86091 6749 ft 210 kts 210°
2026-04-21 16:46 42.24815 -122.86893 7118 ft 204 kts 199°
2026-04-21 16:46 42.23455 -122.87366 7488 ft 200 kts 191°
2026-04-21 16:46 42.22075 -122.87615 7796 ft 200 kts 185°
2026-04-21 16:46 42.20681 -122.87735 8097 ft 200 kts 182°
2026-04-21 16:47 42.19286 -122.87795 8397 ft 201 kts 181°
2026-04-21 16:47 42.17889 -122.87831 8697 ft 201 kts 181°
2026-04-21 16:47 42.16492 -122.87862 8997 ft 201 kts 181°
2026-04-21 16:47 42.15094 -122.87894 9298 ft 201 kts 181°
2026-04-21 16:48 42.13699 -122.87927 9597 ft 201 kts 181°
2026-04-21 16:48 42.12319 -122.87961 9892 ft 201 kts 181°
2026-04-21 16:48 42.10917 -122.87997 10193 ft 201 kts 181°
2026-04-21 16:48 42.09518 -122.88033 10493 ft 201 kts 181°
2026-04-21 16:49 42.08120 -122.88069 10792 ft 201 kts 181°
2026-04-21 16:49 42.06709 -122.88105 11097 ft 205 kts 181°
2026-04-21 16:49 42.05261 -122.88142 11404 ft 210 kts 181°
2026-04-21 16:49 42.03783 -122.88180 11708 ft 214 kts 181°
2026-04-21 16:50 42.02275 -122.88220 12012 ft 217 kts 181°
2026-04-21 16:50 42.00772 -122.88260 12311 ft 220 kts 181°
2026-04-21 16:50 41.99234 -122.88301 12614 ft 222 kts 180°
2026-04-21 16:50 41.97680 -122.88343 12917 ft 224 kts 180°
2026-04-21 16:51 41.96121 -122.88384 13219 ft 225 kts 180°
2026-04-21 16:51 41.94556 -122.88424 13520 ft 226 kts 180°
2026-04-21 16:51 41.92982 -122.88464 13822 ft 226 kts 181°
2026-04-21 16:51 41.91405 -122.88505 14123 ft 227 kts 181°
2026-04-21 16:52 41.89825 -122.88547 14423 ft 227 kts 181°
2026-04-21 16:52 41.88243 -122.88588 14723 ft 228 kts 181°
2026-04-21 16:52 41.86655 -122.88629 15024 ft 228 kts 180°
2026-04-21 16:52 41.85063 -122.88667 15325 ft 229 kts 180°
2026-04-21 16:53 41.83472 -122.88704 15625 ft 229 kts 180°
2026-04-21 16:53 41.81873 -122.88742 15926 ft 230 kts 180°
2026-04-21 16:53 41.80276 -122.88781 16226 ft 230 kts 180°
2026-04-21 16:53 41.78676 -122.88820 16526 ft 230 kts 180°
2026-04-21 16:54 41.77073 -122.88861 16827 ft 230 kts 180°
2026-04-21 16:54 41.75474 -122.88901 17126 ft 230 kts 180°
2026-04-21 16:54 41.73885 -122.88941 17423 ft 230 kts 180°
2026-04-21 16:54 41.72279 -122.88982 17724 ft 230 kts 180°
2026-04-21 16:55 41.70679 -122.89022 18023 ft 231 kts 180°
2026-04-21 16:55 41.69070 -122.89063 18324 ft 231 kts 180°
2026-04-21 16:55 41.67461 -122.89104 18625 ft 231 kts 180°
2026-04-21 16:55 41.65858 -122.89144 18925 ft 230 kts 180°
2026-04-21 16:56 41.64256 -122.89185 19225 ft 230 kts 180°
2026-04-21 16:56 41.62653 -122.89226 19525 ft 230 kts 180°
2026-04-21 16:56 41.61048 -122.89267 19825 ft 230 kts 180°
2026-04-21 16:56 41.59450 -122.89307 20125 ft 229 kts 180°
2026-04-21 16:57 41.57853 -122.89348 20420 ft 229 kts 180°
2026-04-21 16:57 41.56278 -122.89387 20695 ft 230 kts 180°
2026-04-21 16:57 41.54676 -122.89428 20964 ft 231 kts 180°
2026-04-21 16:57 41.53064 -122.89469 21218 ft 232 kts 180°
2026-04-21 16:58 41.51440 -122.89510 21472 ft 233 kts 180°
2026-04-21 16:58 41.49815 -122.89553 21723 ft 234 kts 180°
2026-04-21 16:58 41.48185 -122.89595 21974 ft 234 kts 180°
2026-04-21 16:58 41.46548 -122.89637 22225 ft 235 kts 180°
2026-04-21 16:59 41.44910 -122.89679 22476 ft 235 kts 180°
2026-04-21 16:59 41.43295 -122.89720 22702 ft 236 kts 180°
2026-04-21 16:59 41.41630 -122.89762 22826 ft 242 kts 180°
2026-04-21 16:59 41.39928 -122.89806 22882 ft 248 kts 180°
2026-04-21 17:00 41.38173 -122.89852 22880 ft 255 kts 181°
2026-04-21 17:00 41.36377 -122.89901 22875 ft 260 kts 181°
2026-04-21 17:00 41.35169 -122.89934 22874 ft 263 kts 181°
2026-04-21 17:00 41.32707 -122.90000 22874 ft 267 kts 181°
2026-04-21 17:01 41.30840 -122.90050 22876 ft 268 kts 181°
2026-04-21 17:01 41.28988 -122.90099 22878 ft 270 kts 181°
2026-04-21 17:01 41.27084 -122.90148 22880 ft 271 kts 181°
2026-04-21 17:01 41.25222 -122.90196 22880 ft 272 kts 181°
2026-04-21 17:02 41.23326 -122.90245 22881 ft 272 kts 181°
2026-04-21 17:02 41.21429 -122.90293 22882 ft 273 kts 181°
2026-04-21 17:02 41.19533 -122.90341 22882 ft 273 kts 181°
2026-04-21 17:02 41.17633 -122.90389 22883 ft 273 kts 181°
2026-04-21 17:03 41.15735 -122.90439 22884 ft 273 kts 181°
2026-04-21 17:03 41.13826 -122.90488 22884 ft 273 kts 181°
2026-04-21 17:03 41.11926 -122.90536 22885 ft 273 kts 181°
2026-04-21 17:03 41.10050 -122.90583 22886 ft 273 kts 181°
2026-04-21 17:04 41.08151 -122.90630 22886 ft 273 kts 181°
2026-04-21 17:04 41.06247 -122.90677 22887 ft 273 kts 181°
2026-04-21 17:04 41.04348 -122.90725 22887 ft 273 kts 181°
2026-04-21 17:04 41.02450 -122.90772 22887 ft 272 kts 181°
2026-04-21 17:05 41.00551 -122.90820 22886 ft 272 kts 181°
2026-04-21 17:05 40.98653 -122.90868 22886 ft 272 kts 181°
2026-04-21 17:05 40.96780 -122.90915 22885 ft 272 kts 181°
2026-04-21 17:05 40.94886 -122.90962 22884 ft 272 kts 181°
2026-04-21 17:06 40.92989 -122.91010 22882 ft 272 kts 181°
2026-04-21 17:06 40.91098 -122.91057 22879 ft 272 kts 181°
2026-04-21 17:06 40.89207 -122.91104 22876 ft 272 kts 181°
2026-04-21 17:06 40.87312 -122.91152 22873 ft 272 kts 181°
2026-04-21 17:07 40.86056 -122.91183 22871 ft 272 kts 181°
2026-04-21 17:07 40.83520 -122.91247 22867 ft 272 kts 182°
2026-04-21 17:07 40.81625 -122.91294 22864 ft 272 kts 182°
2026-04-21 17:07 40.79733 -122.91341 22862 ft 272 kts 182°
2026-04-21 17:08 40.78477 -122.91373 22861 ft 272 kts 182°
2026-04-21 17:08 40.76586 -122.91420 22860 ft 272 kts 182°
2026-04-21 17:08 40.74695 -122.91467 22859 ft 272 kts 182°
2026-04-21 17:08 40.72190 -122.91529 22859 ft 271 kts 182°
2026-04-21 17:09 40.68414 -122.91623 22860 ft 271 kts 182°
2026-04-21 17:09 40.67160 -122.91654 22861 ft 271 kts 182°
2026-04-21 17:09 40.65275 -122.91701 22861 ft 271 kts 182°
2026-04-21 17:10 40.63391 -122.91748 22860 ft 271 kts 182°
2026-04-21 17:10 40.61509 -122.91795 22860 ft 271 kts 182°
2026-04-21 17:10 40.59625 -122.91842 22860 ft 270 kts 182°
2026-04-21 17:10 40.57741 -122.91888 22861 ft 270 kts 182°
2026-04-21 17:11 40.55862 -122.91934 22861 ft 270 kts 182°
2026-04-21 17:11 40.53983 -122.91981 22861 ft 270 kts 182°
2026-04-21 17:11 40.52105 -122.92028 22862 ft 270 kts 182°
2026-04-21 17:11 40.50246 -122.92074 22865 ft 270 kts 182°
2026-04-21 17:12 40.48369 -122.92120 22868 ft 269 kts 182°
2026-04-21 17:12 40.46493 -122.92167 22870 ft 269 kts 182°
2026-04-21 17:12 40.44620 -122.92213 22871 ft 269 kts 182°
2026-04-21 17:12 40.42745 -122.92259 22873 ft 269 kts 182°
2026-04-21 17:13 40.40871 -122.92305 22874 ft 269 kts 182°
2026-04-21 17:13 40.39001 -122.92351 22876 ft 269 kts 182°
2026-04-21 17:13 40.37130 -122.92397 22877 ft 269 kts 182°
2026-04-21 17:13 40.35259 -122.92444 22879 ft 269 kts 182°
2026-04-21 17:14 40.33388 -122.92490 22880 ft 269 kts 182°
2026-04-21 17:14 40.31518 -122.92536 22881 ft 269 kts 182°
2026-04-21 17:14 40.29670 -122.92581 22883 ft 268 kts 182°
2026-04-21 17:14 40.27778 -122.92628 22884 ft 268 kts 182°
2026-04-21 17:15 40.25934 -122.92673 22885 ft 268 kts 182°
2026-04-21 17:15 40.24069 -122.92719 22886 ft 268 kts 182°
2026-04-21 17:15 40.22199 -122.92765 22887 ft 268 kts 182°
2026-04-21 17:15 40.20335 -122.92810 22888 ft 268 kts 182°
2026-04-21 17:16 40.18465 -122.92856 22889 ft 268 kts 182°
2026-04-21 17:16 40.16604 -122.92902 22890 ft 268 kts 182°
2026-04-21 17:16 40.14735 -122.92948 22890 ft 268 kts 183°
2026-04-21 17:16 40.12869 -122.92993 22884 ft 268 kts 183°
2026-04-21 17:17 40.11003 -122.93039 22881 ft 268 kts 183°
2026-04-21 17:17 40.09134 -122.93084 22881 ft 268 kts 183°
2026-04-21 17:17 40.07270 -122.93130 22881 ft 268 kts 183°
2026-04-21 17:17 40.05405 -122.93176 22886 ft 268 kts 183°
2026-04-21 17:18 40.03541 -122.93221 22900 ft 267 kts 183°
2026-04-21 17:18 40.01685 -122.93266 22907 ft 267 kts 183°
2026-04-21 17:18 39.99846 -122.93311 22908 ft 267 kts 183°
2026-04-21 17:18 39.97993 -122.93353 22907 ft 263 kts 184°
2026-04-21 17:19 39.96196 -122.93393 22790 ft 255 kts 184°
2026-04-21 17:19 39.94432 -122.93436 22525 ft 252 kts 185°
2026-04-21 17:19 39.92680 -122.93481 22217 ft 251 kts 185°
2026-04-21 17:19 39.90933 -122.93528 21889 ft 251 kts 185°
2026-04-21 17:20 39.89190 -122.93574 21542 ft 250 kts 184°
2026-04-21 17:20 39.87441 -122.93619 21193 ft 252 kts 184°
2026-04-21 17:20 39.85682 -122.93664 20844 ft 253 kts 184°
2026-04-21 17:20 39.83918 -122.93708 20493 ft 252 kts 184°
2026-04-21 17:21 39.82187 -122.93751 20147 ft 252 kts 184°
2026-04-21 17:21 39.80434 -122.93793 19797 ft 251 kts 184°
2026-04-21 17:21 39.78688 -122.93836 19447 ft 251 kts 184°
2026-04-21 17:21 39.76940 -122.93879 19096 ft 251 kts 184°
2026-04-21 17:22 39.75196 -122.93921 18746 ft 251 kts 184°
2026-04-21 17:22 39.73454 -122.93963 18396 ft 250 kts 184°
2026-04-21 17:22 39.71706 -122.94005 18044 ft 250 kts 184°
2026-04-21 17:22 39.69979 -122.94046 17697 ft 250 kts 184°
2026-04-21 17:23 39.68242 -122.94088 17348 ft 250 kts 184°
2026-04-21 17:23 39.66501 -122.94130 16997 ft 249 kts 184°
2026-04-21 17:23 39.64769 -122.94172 16647 ft 249 kts 184°
2026-04-21 17:23 39.63039 -122.94213 16298 ft 248 kts 184°
2026-04-21 17:24 39.61310 -122.94255 15947 ft 248 kts 184°
2026-04-21 17:24 39.59583 -122.94296 15599 ft 247 kts 184°
2026-04-21 17:24 39.57869 -122.94337 15291 ft 245 kts 184°
2026-04-21 17:24 39.56167 -122.94378 14989 ft 243 kts 184°
2026-04-21 17:25 39.54483 -122.94417 14691 ft 242 kts 183°
2026-04-21 17:25 39.52799 -122.94460 14388 ft 241 kts 184°
2026-04-21 17:25 39.51148 -122.94500 14091 ft 239 kts 184°
2026-04-21 17:25 39.49485 -122.94534 13790 ft 239 kts 183°
2026-04-21 17:26 39.47826 -122.94564 13490 ft 238 kts 183°
2026-04-21 17:26 39.46171 -122.94603 13205 ft 238 kts 184°
2026-04-21 17:26 39.44516 -122.94650 12929 ft 237 kts 184°
2026-04-21 17:26 39.42857 -122.94695 12654 ft 238 kts 184°
2026-04-21 17:27 39.41200 -122.94741 12378 ft 238 kts 184°
2026-04-21 17:27 39.39549 -122.94784 12103 ft 237 kts 184°
2026-04-21 17:27 39.37922 -122.94826 11831 ft 236 kts 183°
2026-04-21 17:27 39.36257 -122.94865 11552 ft 236 kts 183°
2026-04-21 17:28 39.34643 -122.94908 11289 ft 235 kts 183°
2026-04-21 17:28 39.33017 -122.94949 11085 ft 233 kts 183°
2026-04-21 17:28 39.31393 -122.94986 10886 ft 233 kts 183°
2026-04-21 17:28 39.29767 -122.95021 10686 ft 234 kts 183°
2026-04-21 17:29 39.28136 -122.95056 10485 ft 234 kts 183°
2026-04-21 17:29 39.26510 -122.95095 10281 ft 234 kts 183°
2026-04-21 17:29 39.24883 -122.95137 10058 ft 234 kts 183°
2026-04-21 17:29 39.23259 -122.95176 9834 ft 234 kts 183°
2026-04-21 17:30 39.21625 -122.95216 9608 ft 234 kts 182°
2026-04-21 17:30 39.20002 -122.95256 9382 ft 233 kts 182°
2026-04-21 17:30 39.18377 -122.95293 9143 ft 234 kts 182°
2026-04-21 17:30 39.16770 -122.95325 8898 ft 234 kts 182°
2026-04-21 17:31 39.15143 -122.95357 8648 ft 234 kts 182°
2026-04-21 17:31 39.13513 -122.95384 8396 ft 234 kts 182°
2026-04-21 17:31 39.11882 -122.95402 8147 ft 234 kts 182°
2026-04-21 17:31 39.10257 -122.95436 7899 ft 234 kts 182°
2026-04-21 17:32 39.08629 -122.95481 7647 ft 234 kts 182°
2026-04-21 17:32 39.07000 -122.95526 7396 ft 233 kts 184°
2026-04-21 17:32 39.05374 -122.95585 7147 ft 233 kts 183°
2026-04-21 17:32 39.03752 -122.95636 6898 ft 233 kts 182°
2026-04-21 17:33 39.02129 -122.95671 6647 ft 233 kts 182°
2026-04-21 17:33 39.00501 -122.95712 6397 ft 233 kts 183°
2026-04-21 17:33 38.98888 -122.95757 6174 ft 232 kts 182°
2026-04-21 17:33 38.97275 -122.95794 5947 ft 231 kts 183°
2026-04-21 17:34 38.95686 -122.95836 5725 ft 231 kts 182°
2026-04-21 17:34 38.94076 -122.95865 5500 ft 230 kts 182°
2026-04-21 17:34 38.92469 -122.95914 5276 ft 231 kts 182°
2026-04-21 17:34 38.90862 -122.95957 5107 ft 230 kts 182°
2026-04-21 17:35 38.89281 -122.95993 5038 ft 225 kts 182°
2026-04-21 17:35 38.87733 -122.96025 5018 ft 219 kts 183°
2026-04-21 17:35 38.86222 -122.96064 5008 ft 215 kts 183°
2026-04-21 17:35 38.84734 -122.96104 5007 ft 212 kts 182°
2026-04-21 17:36 38.83267 -122.96134 5020 ft 210 kts 182°
2026-04-21 17:36 38.81813 -122.96110 5020 ft 208 kts 183°
2026-04-21 17:36 38.80370 -122.96148 5026 ft 207 kts 184°
2026-04-21 17:36 38.78953 -122.96165 5033 ft 205 kts 184°
2026-04-21 17:37 38.77530 -122.96200 5039 ft 202 kts 184°
2026-04-21 17:37 38.76127 -122.96134 5041 ft 201 kts 178°
2026-04-21 17:37 38.75210 -122.96004 5045 ft 200 kts 175°
2026-04-21 17:37 38.73316 -122.95685 4755 ft 211 kts 175°
2026-04-21 17:38 38.71846 -122.95436 4476 ft 212 kts 174°
2026-04-21 17:38 38.70398 -122.95178 4254 ft 202 kts 175°
2026-04-21 17:38 38.69129 -122.94946 4031 ft 173 kts 177°
2026-04-21 17:38 38.67959 -122.94723 3753 ft 173 kts 173°
2026-04-21 17:39 38.66768 -122.94462 3487 ft 174 kts 173°
2026-04-21 17:39 38.65570 -122.94189 3206 ft 176 kts 174°
2026-04-21 17:39 38.64398 -122.93727 2914 ft 180 kts 155°
2026-04-21 17:39 38.63391 -122.92776 2646 ft 179 kts 146°
2026-04-21 17:40 38.62430 -122.91787 2361 ft 174 kts 146°
2026-04-21 17:40 38.61509 -122.90862 2076 ft 160 kts 145°
2026-04-21 17:40 38.60697 -122.89992 1852 ft 143 kts 143°
2026-04-21 17:40 38.59972 -122.89220 1778 ft 131 kts 144°
2026-04-21 17:41 38.59275 -122.88477 1789 ft 133 kts 145°
2026-04-21 17:41 38.58545 -122.87729 1784 ft 136 kts 146°
2026-04-21 17:41 38.57794 -122.86996 1798 ft 137 kts 148°
2026-04-21 17:41 38.57037 -122.86227 1749 ft 142 kts 142°
2026-04-21 17:42 38.56297 -122.85340 1616 ft 149 kts 140°
2026-04-21 17:42 38.55657 -122.84435 1593 ft 112 kts 134°
2026-04-21 17:42 38.55174 -122.83787 1461 ft 101 kts 139°
2026-04-21 17:42 38.54655 -122.83157 1239 ft 102 kts 142°
2026-04-21 17:43 38.54103 -122.82599 964 ft 99 kts 151°
2026-04-21 17:43 38.53507 -122.82203 716 ft 96 kts 161°
2026-04-21 17:43 38.52884 -122.81931 505 ft 93 kts 164°
2026-04-21 17:43 38.52270 -122.81652 337 ft 94 kts 162°
2026-04-21 17:44 38.51673 -122.81337 196 ft 93 kts 160°
2026-04-21 17:44 38.51112 -122.81026 130 ft 76 kts 161°
2026-04-21 17:44 38.50817 -122.80872 129 ft 25 kts 160°
2026-04-21 17:44 38.50733 -122.80786 129 ft 7 kts 102°
2026-04-21 17:45 38.50730 -122.80731 129 ft 5 kts 86°
2026-04-21 17:45 38.50738 -122.80695 129 ft 4 kts 37°
2026-04-21 17:45 38.50781 -122.80702 129 ft 13 kts 338°
2026-04-21 17:45 38.50894 -122.80764 129 ft 20 kts 336°
2026-04-21 17:46 38.51022 -122.80835 129 ft 19 kts 337°
2026-04-21 17:46 38.51097 -122.80797 129 ft 16 kts 96°
2026-04-21 17:46 38.51066 -122.80651 129 ft 12 kts 147°
2026-04-21 17:46 38.51052 -122.80643 129 ft 0 kts 161°